Theta_e
314 316 316 316 317 318 319 318 317 318 317 317 317 316 316 316 316 317 317 317 317 314 314 315 314 314 314 315 315 316 316 316 317 316 316 317 317 317 317 316 316 316 315 314 312 311 310 309 310 310 310 310 310 310 310 311 311 311 310 310 310 310 310 309 309 309 309 309 310 310 310 311 311 311 312 312 313 313 314 315 315 316 316 316 317 317
314 316 317 317 317 318 318 317 316 317 316 316 316 315 316 316 316 316 317 317 315 313 314 314 314 314 314 315 316 316 316 316 317 317 317 317 318 318 317 316 315 315 313 312 311 310 309 310 310 311 310 310 310 310 311 311 311 311 310 310 310 310 310 309 309 308 308 308 308 309 309 310 310 310 311 311 312 312 313 314 315 315 316 316 316 316
315 316 316 317 318 318 317 316 315 315 315 315 315 315 316 316 316 317 316 316 313 312 314 314 314 314 314 315 316 317 317 317 317 318 318 318 317 316 315 314 314 313 312 311 310 309 309 310 311 311 311 311 310 310 311 311 311 311 310 310 310 310 310 310 309 309 308 308 308 308 308 309 309 309 310 310 311 311 312 313 313 314 315 316 316 317
317 317 317 317 318 317 316 315 314 314 314 315 315 315 316 316 317 317 316 315 314 314 314 314 313 314 316 316 317 318 318 318 318 318 317 317 316 315 314 313 312 311 311 310 308 308 309 310 311 311 311 311 311 311 311 311 311 311 310 310 310 310 310 309 309 309 309 308 308 308 308 308 308 308 308 309 309 309 310 310 311 311 312 313 314 315
318 318 317 316 316 316 315 315 315 314 315 316 316 316 316 317 317 316 316 315 315 315 314 314 315 318 319 319 318 318 318 318 317 316 316 315 314 313 312 311 311 310 309 308 307 307 308 309 310 310 310 310 310 311 311 311 311 311 310 310 310 309 309 309 309 309 308 308 308 307 307 307 307 307 307 307 308 308 308 308 309 309 309 310 311 312
317 317 316 315 315 315 315 315 315 316 316 316 317 317 317 317 317 316 316 315 315 316 314 314 318 320 319 319 320 319 319 318 316 314 313 313 313 312 310 310 309 309 307 306 305 305 306 307 308 309 310 311 311 310 310 310 310 311 310 310 310 310 309 309 308 308 308 307 307 306 306 306 306 306 307 307 307 307 307 307 307 308 308 308 309 309
316 315 314 315 316 316 316 315 316 316 316 317 317 317 316 316 316 316 316 315 316 317 316 314 317 320 319 319 320 318 319 318 314 312 312 312 311 310 309 309 308 307 306 305 305 305 305 306 307 308 309 310 310 309 308 308 309 310 311 310 310 310 309 309 309 308 307 307 306 305 305 305 305 305 306 306 306 306 306 306 306 306 307 307 307 307
315 314 313 314 315 316 316 315 316 316 316 317 316 315 315 315 315 316 315 315 315 316 316 315 316 318 319 319 319 318 319 318 314 312 312 311 310 309 308 307 306 306 304 304 304 304 305 305 306 306 307 308 308 307 307 308 309 310 310 310 309 309 309 309 309 308 308 307 305 305 304 304 304 304 305 305 305 305 305 305 305 305 305 306 306 306
315 314 314 315 315 316 316 316 317 316 316 316 313 313 314 313 314 314 314 314 315 315 317 316 316 318 319 319 319 318 318 317 314 312 311 310 310 309 307 307 305 304 303 303 303 302 302 303 303 304 305 306 307 307 307 308 309 309 310 309 309 309 308 308 308 308 308 307 307 305 304 304 304 304 304 304 304 304 304 304 304 304 304 304 305 305
314 312 313 315 315 316 315 314 315 316 316 314 312 313 313 313 313 313 313 314 314 315 318 318 317 319 320 318 318 318 316 316 314 311 311 310 309 308 307 306 305 304 302 301 301 301 301 301 301 302 304 305 306 306 307 308 309 310 310 309 309 309 309 308 308 308 308 307 307 307 306 305 304 304 303 303 303 303 303 303 303 303 303 303 304 304
312 309 310 313 314 314 312 310 311 314 313 312 312 313 313 314 314 313 313 313 315 318 319 318 318 318 319 318 318 317 315 315 314 311 310 310 308 307 305 304 303 302 301 301 300 300 300 300 300 301 302 303 304 305 306 308 309 309 309 309 310 310 309 309 309 308 308 307 307 307 306 306 306 305 304 303 303 302 302 302 302 303 303 303 303 303
313 310 310 312 313 312 312 311 310 310 310 311 312 312 314 316 315 314 314 314 317 320 318 317 318 318 318 317 316 316 314 314 314 312 310 309 308 306 304 303 302 301 300 300 299 299 299 299 299 299 300 300 302 304 305 307 307 308 308 308 309 309 309 309 309 308 308 308 307 307 307 306 306 306 305 304 303 302 302 302 302 302 302 302 302 303
315 315 313 313 311 311 312 313 311 310 310 311 312 312 315 318 318 318 318 317 319 320 315 315 317 318 318 316 316 317 314 313 313 312 310 308 307 305 303 302 301 300 300 299 298 298 298 298 299 299 299 300 302 303 304 305 305 306 306 306 307 307 307 307 308 307 307 307 307 307 307 307 306 306 306 305 304 303 302 301 301 301 301 301 301 301
317 317 315 314 313 311 312 314 315 314 311 311 313 314 316 319 320 321 320 319 320 318 313 313 315 316 316 316 317 316 313 311 311 311 309 307 305 304 303 302 301 300 299 298 297 297 297 297 297 298 299 300 301 302 303 303 303 303 304 304 305 305 305 306 306 306 306 306 306 306 306 306 306 306 305 305 304 304 303 302 301 300 300 300 300 300
317 317 316 316 315 312 312 314 317 317 314 313 314 315 317 318 319 320 320 319 319 318 314 313 315 317 316 315 315 313 310 309 309 307 306 305 304 303 302 301 300 299 298 297 297 297 297 297 297 297 298 299 300 301 301 302 302 302 302 302 302 303 304 304 305 305 305 305 304 304 304 304 304 305 305 305 304 304 303 302 302 301 300 299 299 299
317 317 317 315 312 312 314 315 316 316 316 315 314 315 316 317 318 318 319 319 319 318 317 315 316 316 315 314 312 310 309 308 307 306 305 304 303 302 301 300 299 298 297 297 296 296 296 296 297 297 298 299 299 299 300 300 300 300 300 300 301 301 302 302 303 303 303 303 303 303 303 303 303 303 304 304 304 303 303 303 302 301 300 300 299 299
315 316 317 314 311 311 312 313 314 315 316 314 313 315 315 314 316 317 318 318 318 318 317 316 316 315 315 316 312 309 308 307 306 306 305 304 302 301 300 299 298 297 296 295 295 295 296 296 297 297 298 298 298 298 298 299 299 299 299 299 300 300 300 301 301 301 301 301 302 301 301 301 301 301 302 302 303 303 303 303 303 302 302 301 301 299
316 316 317 316 315 311 307 309 312 312 313 313 313 314 313 313 314 315 316 317 317 317 317 316 316 314 315 316 313 310 309 307 305 305 304 303 302 301 300 298 297 297 295 294 295 295 296 296 297 297 297 297 297 297 297 297 297 297 298 298 298 298 298 298 298 299 299 299 300 300 300 300 299 299 299 300 301 301 302 303 303 303 303 302 301 300
316 316 316 316 316 312 307 309 312 311 311 311 312 311 312 315 314 314 316 316 317 317 316 316 316 315 315 315 314 312 310 307 305 304 303 303 302 301 299 298 297 296 295 294 294 295 296 296 296 296 296 296 296 296 296 296 296 296 296 296 297 297 296 296 297 297 297 297 297 297 297 297 297 297 298 298 299 299 300 301 302 302 302 302 302 301
314 315 316 315 314 313 310 311 314 313 311 309 309 310 312 313 314 314 315 315 316 317 317 317 316 316 316 315 314 313 310 307 306 304 303 302 301 300 299 298 297 296 295 294 294 294 294 294 295 295 295 295 295 295 295 295 295 295 295 295 295 295 295 295 295 295 295 295 296 296 296 296 296 296 297 297 297 297 298 298 299 300 301 301 301 301
313 315 316 315 313 314 313 313 314 314 313 311 310 311 312 312 312 314 314 314 315 316 317 318 317 316 315 313 312 311 309 308 307 304 303 301 300 299 298 297 296 295 294 294 293 293 293 293 293 293 293 293 293 293 293 293 294 294 294 294 294 294 294 294 294 294 294 294 295 295 296 296 296 296 296 296 296 296 296 296 296 297 298 299 300 300
314 314 315 315 314 314 315 314 314 314 314 314 313 313 313 313 313 314 314 314 314 315 316 316 316 316 312 311 310 309 308 307 306 304 302 301 299 298 297 296 295 295 294 294 294 294 294 294 293 293 292 292 292 292 292 292 292 293 293 293 293 293 294 293 293 293 293 293 293 293 294 294 295 295 295 295 296 295 295 295 295 295 295 296 297 298
313 313 314 314 314 314 314 313 314 314 314 314 313 313 313 313 313 314 314 314 314 314 315 314 315 316 311 308 308 308 306 305 305 304 302 300 299 298 296 295 295 295 295 295 294 294 293 293 293 292 292 292 292 292 292 292 292 292 293 293 293 294 294 293 293 293 292 292 292 292 292 292 292 293 293 293 293 293 294 294 294 294 294 295 295 296
312 312 313 313 313 312 312 312 313 313 313 313 313 313 313 313 312 312 312 312 312 313 314 313 314 316 311 306 306 306 305 304 304 303 302 300 298 297 296 295 295 294 294 293 293 292 292 292 291 291 291 291 292 292 292 292 292 292 292 292 292 292 292 292 292 292 292 292 292 291 291 291 290 291 291 291 291 291 291 292 292 293 293 293 294 294
311 312 313 313 313 313 312 312 313 312 312 312 312 312 312 312 312 311 311 312 312 312 313 313 313 314 310 306 306 305 304 304 303 302 301 300 299 297 296 296 295 294 293 293 292 292 292 292 291 291 291 291 291 291 291 291 291 291 291 291 291 291 291 291 291 290 291 291 291 291 291 290 290 289 289 289 289 289 290 290 290 291 291 292 292 292
310 311 312 311 313 313 312 311 312 312 312 311 310 311 311 311 312 311 311 312 312 313 313 312 312 312 310 308 308 307 305 303 302 301 300 299 298 297 296 295 294 293 292 292 291 291 291 291 291 291 291 290 290 290 290 290 290 290 290 290 290 290 290 290 289 289 289 289 289 289 289 289 289 289 288 288 288 288 288 288 289 289 289 289 290 290
309 310 310 310 311 311 310 310 309 310 310 309 310 310 310 310 311 311 310 310 311 311 310 310 310 310 310 309 308 308 307 305 302 301 300 299 298 297 296 295 294 293 292 291 291 291 290 290 290 290 289 289 289 289 289 289 289 289 289 289 289 289 289 289 289 288 288 288 287 287 287 287 287 287 287 287 287 287 287 287 287 287 287 288 288 288
308 308 309 309 310 309 309 308 308 308 308 308 308 309 308 309 310 309 309 308 308 308 308 308 308 308 308 307 306 307 307 306 304 303 301 299 298 296 295 294 293 293 292 292 291 291 291 291 290 289 289 288 288 288 288 288 288 288 288 288 288 288 288 287 287 287 287 287 287 286 286 286 287 287 287 287 287 287 287 287 287 287 287 287 287 287
308 307 307 307 308 307 307 306 306 306 306 306 306 306 306 306 307 307 307 306 306 306 306 305 305 305 305 304 304 305 305 304 303 302 300 298 297 296 295 294 294 293 293 292 291 291 291 291 290 290 289 289 288 288 288 287 287 287 287 287 287 287 287 287 287 287 287 287 287 286 286 286 286 286 286 286 286 286 286 286 287 287 287 286 286 286
306 305 305 305 305 306 305 305 305 305 305 304 304 304 304 304 304 304 304 304 304 304 304 303 303 303 303 303 303 303 302 301 300 299 297 296 296 296 295 295 294 294 293 292 291 291 291 291 290 290 290 290 289 289 288 288 287 287 287 287 287 287 287 287 287 287 287 287 287 287 286 286 286 286 286 286 286 286 286 286 286 286 286 286 286 286
304 303 304 303 303 305 304 304 305 304 304 304 304 304 303 303 304 303 303 303 303 303 303 303 303 303 302 302 300 299 299 298 297 296 296 295 295 294 294 294 294 294 294 293 291 290 290 290 290 290 290 290 290 289 289 288 288 287 287 287 287 287 287 287 287 287 287 287 287 287 286 286 286 286 286 286 286 286 286 286 286 286 286 286 286 286
303 303 303 302 303 304 303 303 303 302 301 301 302 302 302 302 302 302 302 302 302 302 302 302 302 302 301 300 298 297 297 296 296 295 295 294 294 293 293 293 293 293 294 293 291 290 290 290 290 290 290 289 289 289 288 288 288 288 288 287 287 287 287 287 287 287 287 287 287 287 287 286 286 286 286 286 286 286 286 286 286 286 286 286 286 286
302 302 302 302 302 303 302 302 300 299 299 300 300 300 300 301 301 301 301 301 302 302 302 302 301 300 299 299 298 297 295 294 294 294 293 293 292 292 292 292 292 292 293 293 292 291 290 290 290 289 289 289 289 289 288 288 288 288 288 288 287 287 287 287 287 287 286 286 286 286 286 286 286 286 286 286 286 286 286 286 286 286 286 286 286 286
301 301 300 301 301 301 301 300 298 299 300 300 300 299 300 299 299 299 299 299 300 300 300 299 299 298 297 296 296 294 293 292 292 292 292 292 292 292 292 292 292 292 292 293 292 291 290 290 290 289 289 289 289 289 288 288 288 288 287 287 287 286 286 286 286 286 286 286 286 286 286 286 286 286 286 286 286 286 286 286 285 286 286 285 285 285
300 300 300 300 300 300 299 298 298 299 299 298 298 299 298 298 297 297 297 298 298 298 299 299 298 298 297 295 293 292 292 291 291 291 291 292 292 292 292 291 291 291 291 292 292 291 290 290 289 289 289 289 289 289 288 288 288 287 287 286 285 285 285 285 285 286 286 285 285 285 285 285 285 285 285 286 286 286 286 286 285 285 285 285 285 285
299 299 299 298 299 299 298 298 299 300 297 295 296 297 297 297 297 296 297 297 297 297 298 298 298 298 297 294 292 291 291 291 291 291 292 292 292 292 291 291 291 291 291 291 291 291 291 290 290 289 289 289 289 288 288 287 287 286 285 285 285 284 284 284 284 285 285 285 285 284 284 284 283 283 283 284 285 285 285 285 285 285 285 285 285 285
298 298 298 298 298 298 298 298 299 299 297 297 297 297 297 297 296 296 297 297 297 297 297 298 298 297 294 292 291 291 292 292 292 292 292 292 292 292 291 290 290 290 290 290 290 291 291 290 290 289 289 289 288 287 287 286 286 285 285 285 285 284 284 284 284 284 284 283 283 283 283 282 282 282 282 282 283 283 283 284 284 284 284 284 284 284
297 297 297 297 298 297 297 297 297 297 297 297 296 296 296 296 295 296 296 297 297 297 297 297 297 294 292 291 291 292 292 292 291 292 292 292 292 291 290 290 290 290 290 290 289 290 290 290 290 289 289 288 288 287 286 286 286 285 285 286 285 285 284 284 283 283 282 282 281 281 281 281 281 280 280 280 280 281 281 281 282 282 283 283 283 283
294 296 297 297 297 297 296 296 296 296 296 296 296 294 294 294 295 295 296 295 295 294 293 293 292 291 291 291 291 291 292 291 291 292 292 291 290 290 290 290 290 289 289 289 289 289 289 289 289 288 288 288 287 287 286 286 285 285 285 285 285 284 283 283 282 281 280 280 280 279 279 279 279 279 278 278 278 278 278 278 278 279 280 280 281 282
293 294 295 295 295 296 295 295 295 295 295 296 295 294 293 294 294 294 293 294 293 292 292 291 291 291 291 291 291 291 291 291 291 292 291 291 290 290 290 290 290 289 289 289 289 288 288 288 288 288 287 287 287 286 286 285 285 284 284 284 284 283 282 281 280 279 279 278 278 278 278 278 277 277 277 276 276 276 275 275 275 275 276 277 277 278
293 293 294 295 294 295 295 295 294 294 295 295 295 294 294 294 294 293 293 293 293 292 292 291 291 291 291 290 290 291 291 291 291 291 290 290 290 290 289 289 289 289 289 288 288 288 287 287 287 287 287 286 286 286 285 285 284 284 283 283 282 281 280 279 279 278 278 277 277 276 276 275 275 275 274 274 274 274 274 274 273 273 273 273 274 274
292 292 293 294 294 294 294 294 294 294 295 295 295 295 294 293 293 293 292 292 292 292 292 291 291 291 290 290 290 290 290 290 290 290 290 290 290 289 289 289 289 289 288 288 287 287 286 286 286 286 286 285 285 285 284 283 283 282 282 281 281 280 279 278 278 278 278 277 277 276 276 275 274 274 273 272 272 272 272 273 272 272 272 272 272 272
293 292 292 293 294 294 293 294 293 293 294 294 294 293 293 293 293 293 292 292 292 292 292 291 291 290 290 290 290 290 290 290 290 290 290 289 289 289 289 289 288 288 287 287 286 286 286 286 285 285 284 284 283 283 282 281 281 281 280 280 279 278 278 278 277 277 277 277 277 276 276 275 275 273 272 271 270 270 270 270 270 270 270 270 270 270
292 292 292 292 293 293 292 293 294 293 293 294 293 292 293 293 293 293 293 293 292 292 291 291 291 291 290 290 290 290 290 289 289 289 289 289 289 289 288 288 288 287 287 286 285 285 285 284 284 283 283 282 282 282 281 280 280 279 279 279 278 277 277 277 276 276 276 276 275 275 274 274 273 272 271 270 269 269 268 268 268 268 268 268 268 268
293 293 292 292 293 293 292 293 293 293 293 293 293 293 293 293 293 293 293 293 292 292 291 291 291 290 290 290 289 289 289 289 289 289 289 289 288 288 287 287 287 286 285 285 284 284 283 283 282 282 282 282 281 281 280 279 278 278 278 277 277 276 276 276 275 275 275 274 274 273 272 271 271 270 270 269 268 268 267 267 267 266 266 266 267 267
293 293 293 292 292 292 293 293 293 293 293 293 293 293 292 292 292 292 292 292 292 291 291 291 290 290 290 289 289 289 289 289 288 288 288 288 287 287 287 286 285 285 284 284 283 283 282 282 282 282 282 281 280 279 279 277 277 276 276 276 276 275 275 274 274 274 274 273 272 271 270 269 269 269 268 268 267 266 265 265 265 265 265 265 266 266
292 292 292 292 292 291 291 292 292 292 292 292 292 292 292 292 292 292 291 291 291 291 290 290 290 289 289 289 289 288 288 288 288 287 287 287 286 286 285 285 284 284 283 282 282 282 281 281 281 281 281 280 279 278 277 277 276 276 276 275 275 274 273 273 272 272 271 270 269 269 268 268 268 267 267 266 265 264 264 264 264 264 264 265 265 265
292 292 292 291 291 291 291 291 292 292 292 292 292 292 292 292 291 291 291 291 291 290 290 290 289 289 289 289 288 288 287 287 287 286 286 285 285 285 284 284 283 283 282 281 281 281 281 281 280 280 279 279 278 277 276 276 276 276 275 275 274 273 272 271 270 269 269 268 268 268 267 267 266 265 265 264 264 263 263 263 263 263 263 264 264 264
292 292 292 291 291 291 291 292 292 292 292 292 292 292 292 292 291 291 291 291 291 290 290 289 289 289 289 288 287 287 287 286 286 285 285 285 284 284 283 283 282 282 281 281 281 281 280 280 279 279 278 277 276 276 276 276 276 275 274 273 273 272 271 270 269 268 267 267 266 266 265 265 264 264 264 263 263 263 263 263 263 263 263 264 264 264
292 292 292 291 291 291 291 291 292 291 291 292 292 292 291 291 291 291 291 290 290 290 289 289 289 289 288 288 287 286 286 286 285 284 284 284 283 283 282 282 281 281 281 281 281 280 279 279 278 277 277 276 276 275 276 276 275 274 273 272 272 271 270 269 267 265 265 265 264 264 263 263 263 263 263 263 263 263 263 263 263 264 264 264 264 265
292 292 292 291 291 291 292 292 292 292 292 292 292 292 291 291 291 291 290 290 290 289 289 289 288 288 287 287 286 286 285 285 284 284 284 283 282 282 281 281 281 281 281 280 280 279 278 277 277 276 276 276 275 275 275 275 275 274 273 272 271 270 268 266 264 263 263 263 263 263 263 263 263 263 263 263 263 263 263 263 263 263 264 264 265 265
Wind_Speed
7 6 6 7 9 11 12 12 14 15 15 16 13 12 14 13 13 13 14 14 10 6 8 12 14 15 15 15 17 22 25 25 25 22 21 21 18 12 6 6 8 8 10 12 14 17 18 17 16 14 12 11 9 7 6 4 2 3 5 7 9 9 9 11 13 16 18 19 21 24 26 29 31 35 37 39 41 43 45 46 48 49 49 48 47 46
5 7 7 10 14 15 12 9 10 12 14 15 12 12 12 11 12 14 15 15 7 3 7 11 14 15 16 17 19 21 19 18 18 18 18 16 11 7 5 7 8 10 13 16 18 22 24 23 22 22 20 18 16 14 12 10 9 5 2 4 6 8 9 9 11 13 14 16 18 20 22 24 26 29 32 34 37 39 41 43 45 47 49 48 48 46
6 8 11 15 15 14 11 7 9 12 13 12 10 10 10 9 12 13 11 6 2 1 7 12 13 13 16 20 20 17 13 13 18 19 15 9 7 5 6 8 11 14 16 19 21 23 26 27 26 27 27 25 22 20 18 16 14 12 8 5 4 5 6 7 9 10 11 13 15 17 19 22 23 26 29 30 32 35 36 38 40 43 45 46 47 46
6 7 10 15 14 12 12 9 9 11 10 9 8 8 9 10 10 9 5 1 2 6 9 12 11 11 14 15 13 10 7 13 18 11 6 8 8 9 12 15 16 17 17 20 22 25 27 27 27 27 27 27 26 25 24 22 20 18 15 11 8 6 5 5 6 7 8 10 12 13 15 17 19 22 25 26 27 30 31 33 35 37 38 41 42 44
12 7 3 7 10 10 12 10 10 10 8 9 9 9 11 11 12 11 9 8 10 9 6 8 9 8 5 5 5 2 6 13 6 9 14 15 13 14 18 20 19 19 19 21 23 26 27 28 28 26 26 26 26 27 27 26 25 23 20 16 13 10 7 6 5 5 6 7 9 10 11 13 15 17 20 22 24 25 26 27 30 31 32 34 36 39
12 6 2 4 6 7 9 10 11 9 7 8 9 10 12 12 12 13 11 9 8 5 1 4 8 5 1 6 7 3 9 8 9 17 16 17 16 17 19 18 18 19 21 24 24 26 28 29 28 26 26 26 26 26 25 24 24 24 23 21 18 15 12 9 7 5 5 6 7 9 10 12 14 15 17 19 21 22 23 24 25 27 28 29 30 32
5 1 2 4 7 6 7 10 12 10 7 7 3 3 6 9 10 10 9 6 5 6 1 2 5 6 5 8 5 5 12 2 14 14 14 17 16 16 17 16 17 18 22 26 27 27 29 30 30 28 27 26 26 25 24 24 24 24 25 24 22 21 18 15 12 10 8 7 7 8 9 10 11 14 14 16 20 21 22 23 24 25 26 26 26 28
4 3 1 3 6 6 7 8 8 8 8 4 3 4 4 5 8 6 6 5 5 9 7 4 6 7 7 4 4 8 11 3 13 12 13 15 15 16 16 16 17 18 22 26 28 28 29 30 30 30 29 27 27 26 25 25 25 26 26 25 25 25 24 22 19 16 13 10 9 8 9 9 10 11 12 13 18 21 21 22 23 24 25 25 24 25
3 4 3 5 6 6 6 3 1 5 7 2 5 4 4 4 5 4 5 7 6 8 7 6 7 6 7 2 4 6 6 5 11 12 12 12 13 14 15 17 16 16 21 26 27 28 28 29 29 29 29 28 27 27 26 25 26 26 26 25 25 26 27 26 24 22 19 16 13 11 10 10 9 10 11 12 15 18 20 21 22 23 24 25 24 23
1 2 2 4 5 5 3 3 4 3 4 1 3 1 1 2 4 4 6 7 6 7 8 6 9 5 7 3 3 2 3 5 9 11 11 12 13 12 14 15 14 15 21 25 26 27 27 28 28 28 27 26 26 25 25 25 26 26 25 25 25 27 28 28 27 26 24 21 19 16 13 11 10 9 10 11 13 16 19 21 21 22 23 24 24 23
3 4 1 4 6 2 4 4 4 1 0 1 1 3 4 6 5 5 6 4 5 8 8 6 12 8 5 2 2 1 1 2 7 10 10 12 13 12 13 13 13 15 20 24 24 25 26 26 26 27 26 26 25 25 25 26 26 25 24 24 25 26 26 27 27 27 26 25 23 21 18 16 14 12 11 11 13 14 17 19 21 22 22 23 24 23
6 4 2 4 5 2 3 2 1 3 1 1 3 4 5 6 4 4 5 3 6 7 4 1 8 10 7 2 1 3 6 5 4 8 11 12 12 12 13 13 12 13 19 23 24 24 25 25 26 26 27 27 26 27 27 27 26 24 24 24 24 24 25 25 25 25 25 25 24 23 22 20 18 16 14 13 13 14 16 18 19 21 22 23 24 24
5 7 7 5 4 7 5 2 2 3 3 3 3 3 5 5 4 5 5 4 7 4 2 4 2 7 9 6 8 6 7 8 5 8 12 14 14 14 13 12 11 13 18 21 22 23 24 25 26 25 26 26 27 28 28 27 26 25 25 24 24 24 25 25 25 24 24 24 24 23 22 22 20 19 17 16 15 14 15 16 18 20 21 21 23 25
3 2 7 6 2 8 10 4 3 3 4 6 4 4 4 5 6 8 7 7 8 3 3 3 0 4 7 7 10 8 7 12 11 14 16 15 15 15 13 11 11 15 18 19 21 22 23 24 25 24 25 26 27 27 26 26 26 26 25 25 24 24 25 24 25 25 25 25 25 24 23 22 21 20 19 18 17 16 16 16 17 18 19 19 20 23
6 4 5 6 2 9 12 8 5 2 3 7 5 4 5 5 7 7 6 7 9 6 2 2 1 4 5 2 3 6 13 15 15 18 17 16 15 14 13 11 12 14 16 18 20 21 22 22 22 23 24 25 26 25 24 24 24 24 24 25 24 24 24 24 24 24 24 25 25 24 24 23 22 21 21 20 19 19 18 18 18 19 19 19 19 21
7 7 2 3 1 6 9 5 2 2 3 4 2 3 5 4 5 6 6 7 8 8 6 5 4 5 6 2 10 13 14 15 15 16 15 13 13 12 12 12 12 12 13 16 18 18 19 19 20 22 23 24 25 24 23 23 22 22 22 22 23 23 23 22 22 22 22 22 23 23 23 23 23 22 22 21 21 21 20 20 21 20 20 20 20 21
6 6 3 3 1 3 2 2 1 2 3 1 2 3 2 2 3 5 7 7 7 9 7 6 8 8 8 5 9 13 12 11 11 11 12 11 11 11 11 10 10 10 12 15 16 17 18 19 20 21 22 23 23 22 22 21 21 20 20 20 21 21 20 20 20 19 19 19 20 20 21 22 22 22 22 22 22 22 22 21 21 22 22 22 22 22
4 7 3 3 5 2 2 4 1 2 2 1 2 1 2 1 1 3 7 7 8 11 7 7 12 11 9 5 5 11 10 9 8 8 10 10 9 10 10 9 8 8 10 13 15 16 17 18 19 20 21 21 20 20 19 19 19 19 20 21 21 21 20 20 19 19 18 18 18 18 19 20 21 21 21 21 21 21 21 21 22 22 22 23 22 22
1 6 5 3 3 1 3 2 3 2 0 1 1 2 1 3 4 5 6 5 8 11 8 9 13 11 9 9 4 6 11 10 7 7 7 7 8 8 8 8 7 7 9 13 15 16 17 17 18 17 17 17 17 17 16 17 17 18 19 20 20 21 20 20 20 19 19 19 18 18 18 18 18 19 20 20 20 20 20 20 21 22 22 22 21 21
0 4 4 1 1 2 2 3 5 3 1 1 1 2 2 2 4 5 4 2 6 9 8 8 10 8 7 6 4 3 11 11 8 7 5 6 6 6 6 6 5 6 8 10 13 15 16 16 16 16 15 15 15 15 15 15 16 18 18 19 19 19 19 19 19 19 20 20 20 19 19 19 19 19 20 21 21 21 20 20 19 20 21 21 21 21
0 4 6 2 1 2 3 4 5 6 5 3 4 5 4 3 2 3 3 3 5 8 7 8 9 7 4 3 5 8 9 8 8 8 6 5 6 5 5 4 4 5 6 8 11 13 14 15 16 16 17 17 17 17 18 19 20 21 20 20 20 20 19 20 20 20 21 21 21 21 21 21 21 21 22 21 21 21 20 19 19 19 19 20 21 22
1 4 7 7 5 6 8 7 6 8 8 6 5 5 7 5 3 5 7 6 5 6 7 8 10 7 1 4 4 7 7 6 8 8 7 6 6 5 4 4 5 6 7 9 11 12 13 14 15 16 17 18 19 21 22 23 24 24 24 24 23 23 23 23 23 23 23 22 22 23 23 22 22 22 22 22 21 21 21 20 20 20 19 20 21 22
1 3 6 8 8 10 14 13 5 3 6 6 6 8 9 7 5 8 9 6 5 6 4 6 10 6 1 3 4 6 7 7 8 8 8 7 5 4 3 4 5 6 7 8 9 10 11 12 13 15 16 17 19 20 22 23 24 25 26 26 27 27 27 26 26 25 24 24 23 23 23 23 23 23 22 22 22 22 22 22 22 22 22 21 21 21
1 3 6 7 7 9 14 11 1 3 2 5 6 6 5 5 5 6 6 5 5 5 6 8 10 4 2 3 4 7 7 7 6 6 8 7 6 5 4 3 3 3 4 5 6 7 8 9 11 13 14 15 15 16 18 19 21 22 24 25 26 27 27 28 28 27 27 26 25 25 24 23 23 22 22 22 23 23 23 23 24 24 24 24 23 22
2 4 5 5 5 6 8 8 2 2 1 1 3 3 3 4 6 5 4 4 4 6 9 9 7 3 1 1 3 6 6 6 6 7 7 7 7 6 5 3 2 1 2 2 4 5 6 8 9 11 12 13 13 14 15 16 17 18 20 22 23 24 25 25 26 27 28 28 28 28 28 27 26 25 24 23 23 23 24 24 25 25 26 26 26 25
4 5 4 5 6 6 7 7 4 1 1 1 2 4 5 7 7 5 5 6 5 5 7 7 6 4 1 3 6 6 6 6 6 7 7 6 7 6 5 3 2 1 1 2 4 5 6 8 9 10 10 11 12 12 13 14 15 16 16 17 19 20 21 22 23 24 25 26 27 28 29 29 29 29 28 27 25 25 24 25 25 26 26 27 27 27
4 6 7 10 10 9 10 11 9 8 7 7 8 9 11 10 9 7 7 8 7 6 6 8 10 10 9 12 15 8 5 6 6 8 8 8 7 6 5 4 4 3 2 2 3 4 6 7 8 9 9 10 10 10 11 12 13 14 14 15 16 18 19 20 21 21 22 24 25 26 27 28 29 30 31 30 30 28 27 26 26 27 27 27 28 28
4 7 10 12 13 13 15 16 16 15 14 15 14 14 15 14 12 10 11 12 11 10 9 9 11 14 13 14 17 13 7 6 6 8 7 6 6 6 5 5 6 6 5 5 5 5 5 6 7 8 9 10 11 11 11 12 12 13 14 15 16 18 19 20 22 23 23 24 25 26 28 29 30 30 31 31 31 32 32 31 30 29 28 28 28 28
4 8 11 12 14 16 17 18 18 17 15 15 16 17 17 18 17 16 15 15 13 12 13 15 18 19 16 17 20 17 8 2 4 6 4 4 4 5 5 6 7 7 7 6 6 6 6 7 7 8 9 11 12 13 14 16 17 17 17 17 18 19 20 21 23 24 25 26 27 28 29 30 32 33 33 33 32 33 34 34 33 32 31 31 30 29
4 7 8 9 11 13 15 17 17 16 16 17 18 19 20 22 22 20 18 19 19 18 20 22 24 22 19 19 17 8 3 4 5 4 3 3 3 4 5 7 8 9 8 7 7 7 8 8 9 9 10 10 11 13 15 18 19 21 22 22 22 22 22 23 24 26 27 28 29 30 31 32 33 34 35 36 36 36 36 36 36 35 34 33 32 32
6 6 1 2 7 10 12 15 13 12 13 14 15 17 20 22 22 19 19 20 20 20 21 23 23 21 15 7 2 4 6 4 2 2 2 3 3 4 6 8 9 10 10 9 9 9 9 9 9 10 10 11 12 13 15 18 20 22 24 26 26 27 27 27 27 28 28 29 31 32 33 34 35 36 36 37 37 38 38 39 39 38 38 37 35 34
5 5 1 1 7 9 9 11 12 9 9 12 14 17 20 20 18 17 17 17 17 18 20 20 18 13 4 3 5 4 4 2 1 2 3 4 4 5 8 9 10 11 11 11 11 10 10 10 10 11 11 12 13 15 16 18 20 23 25 26 28 29 30 31 31 32 32 32 33 34 35 36 36 37 38 39 39 39 39 40 41 41 41 41 40 39
3 4 4 4 6 5 7 9 7 4 6 9 11 14 17 17 16 17 17 18 20 19 16 13 9 3 1 2 1 1 2 2 3 4 5 6 6 7 9 11 12 12 13 13 12 11 11 11 11 13 16 17 18 19 20 21 23 26 27 28 30 31 33 35 36 36 37 37 37 38 38 39 39 39 40 40 41 42 41 42 43 44 44 43 43 43
5 5 6 5 4 5 6 3 1 3 8 7 3 5 11 13 13 15 16 17 19 14 6 4 3 2 3 2 1 1 2 5 7 7 7 7 7 9 11 12 12 14 15 15 15 14 13 13 14 17 19 20 20 20 22 24 24 25 24 24 27 30 33 36 39 41 41 42 42 43 43 43 44 44 44 43 43 44 44 44 45 46 47 46 45 45
8 8 8 7 6 7 5 2 4 8 7 2 2 2 6 6 8 13 16 17 17 12 7 7 7 3 4 4 4 3 5 7 9 11 11 10 9 10 11 12 13 14 16 17 17 18 16 16 17 18 19 19 19 19 20 19 18 19 19 20 24 29 33 36 39 43 46 45 45 46 46 46 46 46 48 49 47 46 46 47 46 47 48 49 48 47
9 8 7 7 8 8 7 8 10 7 2 2 5 5 5 5 7 11 13 12 11 11 10 9 7 4 3 3 4 5 7 9 11 13 15 15 12 10 10 11 12 14 16 17 19 21 21 21 22 21 20 20 20 20 19 19 20 23 26 30 34 36 38 39 41 45 49 49 48 48 47 46 46 46 48 51 52 51 50 49 49 49 49 50 51 51
11 8 7 7 8 7 9 11 11 9 8 9 9 6 3 4 4 6 7 5 3 5 7 6 5 4 3 3 7 8 8 8 9 12 15 13 10 8 8 10 12 14 16 18 20 22 23 24 24 22 21 22 24 25 26 27 31 34 38 41 43 43 44 44 46 49 49 48 49 49 47 46 46 45 45 48 53 55 54 54 54 53 53 52 53 54
9 9 8 8 8 7 9 10 10 11 11 6 3 2 5 5 4 4 6 5 2 4 4 3 3 3 2 5 8 7 6 5 6 9 10 7 4 6 9 11 13 15 17 19 21 22 23 24 24 24 26 30 33 34 33 35 38 41 45 48 48 49 49 49 50 51 48 49 50 48 46 46 45 45 45 47 51 54 56 57 57 57 58 57 57 57
5 7 8 8 8 8 10 10 9 9 6 1 1 3 6 5 5 4 7 6 2 4 7 8 4 1 2 7 8 5 5 5 5 8 9 8 8 9 12 14 16 18 20 20 20 21 22 24 26 29 33 35 36 37 38 39 41 43 47 50 51 52 52 52 52 51 50 52 53 49 47 47 46 47 48 49 51 53 54 55 55 56 60 61 60 61
3 4 6 8 8 9 10 9 8 7 4 1 1 3 5 4 4 4 9 7 1 6 8 7 2 6 5 7 8 6 6 7 8 11 13 13 13 13 14 16 19 20 19 18 19 22 26 29 31 34 35 35 36 39 41 43 44 46 48 51 52 53 53 53 53 53 53 54 54 51 49 49 49 49 49 50 52 52 54 54 53 53 57 59 60 62
3 3 6 8 8 10 11 9 7 7 4 4 4 3 7 4 1 5 8 2 7 9 7 6 6 8 8 9 8 7 9 11 14 16 16 15 15 16 17 18 19 18 17 18 24 28 31 33 33 34 36 37 39 41 43 44 46 48 49 51 53 54 55 55 55 56 56 56 54 52 51 50 50 50 51 52 53 53 55 56 53 53 55 56 57 60
3 2 5 7 8 8 9 10 9 7 6 6 5 4 8 4 4 6 2 7 12 10 7 8 10 10 10 10 10 11 14 16 16 17 17 16 17 18 18 17 17 19 22 26 30 31 32 33 34 35 36 37 39 41 42 44 46 48 50 53 54 55 55 56 56 55 56 56 55 54 54 54 54 54 53 53 53 53 55 56 54 54 55 55 55 57
4 4 5 7 7 7 7 8 8 7 3 6 6 4 6 7 7 5 1 7 10 6 5 8 11 10 9 11 12 13 15 16 16 17 17 17 18 17 17 18 20 25 28 29 30 31 32 34 34 35 36 37 38 40 42 45 48 50 52 54 53 53 53 53 54 54 55 56 57 58 58 59 59 58 56 54 52 51 53 56 55 54 53 53 54 54
4 5 6 6 5 6 7 6 5 6 4 8 8 5 7 9 10 9 6 6 9 12 11 10 11 11 10 12 14 15 16 17 17 18 18 17 16 15 18 23 26 28 29 29 29 31 32 33 34 35 36 37 39 43 45 47 49 51 52 52 51 50 51 52 52 53 55 56 57 59 59 59 59 58 57 56 54 52 54 55 54 53 53 52 52 51
6 8 10 9 7 7 9 8 7 8 6 9 11 12 13 15 17 16 14 14 16 16 14 12 13 14 13 13 14 15 17 19 19 18 17 16 16 18 23 26 27 27 28 29 30 31 31 32 34 36 38 41 43 45 47 47 47 48 49 48 47 48 49 50 51 52 54 55 57 58 58 57 58 57 55 54 52 51 53 53 50 49 49 46 45 44
10 14 12 8 8 9 12 14 14 16 16 15 15 18 22 26 26 23 19 19 18 16 15 14 14 16 15 14 14 15 17 18 17 17 18 19 21 23 25 26 26 26 27 28 29 30 31 33 36 39 43 45 45 45 45 44 43 43 44 45 45 45 47 49 51 53 55 55 56 56 55 55 56 55 53 51 49 48 49 48 44 43 42 38 37 38
14 19 13 7 8 9 9 11 14 18 22 22 19 21 24 26 26 23 20 19 18 17 16 15 16 18 20 19 18 18 18 17 17 20 22 23 24 25 25 25 26 26 27 28 29 31 33 37 40 43 45 46 45 43 42 41 40 40 42 43 43 45 46 48 50 52 53 54 54 54 53 53 53 52 50 49 47 46 45 41 37 36 37 35 34 35
10 14 11 9 12 12 10 13 19 23 25 25 23 23 23 23 24 23 22 20 18 16 17 18 20 21 22 22 21 20 19 18 20 22 23 23 23 24 24 25 26 27 28 28 30 33 36 39 42 44 45 44 42 40 39 39 39 39 40 41 42 44 46 47 48 50 51 52 52 52 51 50 49 48 48 47 46 45 43 39 35 34 36 36 35 36
11 9 7 8 11 12 12 16 21 22 22 24 26 25 24 25 25 23 21 20 19 18 20 22 23 22 22 22 21 21 22 21 21 22 22 22 23 23 24 25 26 27 28 29 32 36 39 41 42 42 42 40 38 38 38 39 38 38 39 40 41 42 44 46 47 48 49 49 49 49 48 47 45 45 46 46 45 44 43 40 37 37 39 39 37 37
13 10 9 9 9 10 11 15 17 13 12 18 23 23 22 23 22 20 19 17 17 20 22 22 23 24 23 23 23 22 23 23 22 22 22 22 22 23 24 26 26 27 28 31 35 37 39 40 39 39 38 36 36 37 38 38 38 37 37 38 40 41 42 44 45 45 45 45 45 45 44 44 44 44 44 45 46 46 44 42 38 36 38 39 38 37
17 14 12 10 10 11 14 18 20 15 13 19 24 23 21 19 17 18 18 17 17 20 22 22 23 24 24 24 24 23 22 22 21 21 22 22 22 23 24 25 26 28 30 33 36 38 38 37 35 35 35 34 35 35 37 37 37 36 36 38 38 39 40 40 41 42 44 44 45 44 44 44 44 43 43 44 45 45 45 44 41 37 36 37 38 38
Wind_Direction
190 209 203 220 240 251 252 244 249 262 275 285 289 282 281 282 279 281 282 285 305 316 288 290 294 297 301 296 286 281 278 277 280 284 282 276 281 295 320 351 354 8 25 41 44 44 50 53 54 54 54 58 61 59 52 34 354 293 274 277 282 280 279 281 282 278 275 273 269 265 263 262 260 260 260 260 259 258 256 256 256 256 256 256 255 253
190 224 224 231 245 259 272 281 276 276 278 279 280 278 277 277 277 279 283 290 319 323 283 295 297 299 302 292 283 279 278 280 280 275 271 277 302 329 355 5 22 48 55 56 52 50 55 59 62 62 60 58 56 56 57 58 57 47 359 305 298 296 297 297 296 293 289 286 281 277 274 271 268 266 265 264 264 263 261 260 258 258 258 258 258 257
212 229 231 236 248 260 268 281 280 274 274 274 271 274 275 274 280 283 282 291 14 287 290 304 302 297 288 281 282 283 283 279 269 266 277 308 346 7 28 42 60 65 58 52 49 48 52 56 61 62 61 59 57 56 55 56 58 58 56 40 0 332 322 314 310 308 302 294 288 282 276 273 271 269 268 267 266 266 265 264 263 261 261 261 260 259
240 237 231 239 250 258 258 260 265 267 264 259 258 266 271 273 279 287 285 314 314 281 289 301 298 286 274 265 270 276 270 267 266 276 340 27 43 59 64 66 68 63 54 48 47 50 52 54 58 58 58 59 57 56 55 55 54 54 54 50 45 33 9 343 331 323 310 302 298 293 285 280 278 275 275 275 273 273 273 273 273 271 270 268 266 263
256 268 222 236 249 251 258 261 256 260 262 255 252 254 263 271 277 285 297 311 304 283 282 302 294 289 285 258 259 249 246 261 285 49 58 63 69 75 72 67 65 60 54 50 48 51 54 54 55 56 57 56 55 53 51 52 52 52 52 50 49 48 40 22 3 342 322 311 308 303 299 296 291 287 285 285 283 282 282 281 280 280 278 275 273 270
263 276 130 208 239 236 249 259 252 252 268 265 253 250 261 275 283 289 300 312 306 280 91 10 313 305 336 273 278 283 267 270 73 73 69 69 68 69 66 60 58 57 58 59 57 54 54 55 54 55 57 56 54 52 51 52 52 51 50 48 47 46 43 39 34 23 2 343 333 323 316 311 304 301 298 296 293 292 292 290 287 286 284 281 280 277
263 266 108 222 238 233 236 252 253 247 258 267 263 272 274 280 284 290 300 305 295 287 336 49 303 288 282 279 261 249 269 274 85 78 79 79 73 68 63 57 52 54 62 64 63 60 56 55 54 54 54 54 54 53 54 55 52 49 46 43 41 39 36 34 35 36 34 26 8 352 340 327 315 308 303 299 298 298 297 295 294 294 292 290 288 285
210 198 110 217 230 233 230 249 252 226 240 270 21 5 325 301 294 299 301 286 278 293 287 218 228 267 293 296 193 239 266 125 93 84 87 83 78 79 72 65 56 54 64 66 62 61 59 57 55 54 54 54 55 53 53 54 52 49 46 42 39 38 35 32 30 29 29 30 26 19 12 359 343 327 316 306 300 301 302 300 300 300 298 297 295 292
138 186 191 190 207 228 227 264 331 198 232 311 45 5 348 332 308 304 292 282 282 294 285 204 194 258 293 281 190 246 261 140 106 98 102 90 81 84 78 73 66 60 68 71 67 62 60 60 58 58 57 56 55 53 53 53 52 51 49 46 42 39 37 33 30 27 24 22 21 22 21 11 359 343 332 323 313 311 313 311 310 308 305 303 301 298
87 135 208 199 209 238 229 31 33 216 239 38 72 356 335 265 269 270 267 279 280 274 273 219 186 241 297 273 204 225 218 162 121 108 109 100 89 80 74 74 71 69 71 72 72 68 64 63 61 60 58 56 56 55 55 54 52 51 48 45 42 39 37 34 31 29 25 22 18 16 14 9 4 353 339 330 323 319 318 317 317 315 312 309 306 304
222 109 44 236 232 251 87 68 28 13 338 51 293 284 276 249 241 250 248 264 273 263 279 235 189 211 294 284 187 152 102 105 118 126 120 105 97 82 73 69 62 66 72 72 70 69 68 66 63 61 59 59 58 56 53 50 48 47 45 42 39 37 35 32 31 29 27 25 21 17 13 6 1 355 347 337 330 323 318 317 318 318 316 314 311 308
221 192 219 220 216 180 116 134 77 76 110 218 260 287 295 268 231 235 224 207 259 266 314 17 182 210 247 239 207 122 106 86 111 138 131 115 105 90 76 69 60 59 68 72 69 66 65 64 62 60 58 57 54 51 48 46 45 43 41 38 34 33 31 29 28 26 25 25 22 20 15 10 5 356 349 340 332 326 321 318 317 317 316 315 313 310
219 214 205 185 186 195 196 203 170 155 179 207 238 252 279 283 257 255 247 234 260 262 84 78 154 229 248 252 254 229 120 98 97 116 122 120 110 96 80 70 65 62 64 67 67 65 63 61 60 57 53 51 48 46 43 42 42 39 37 34 30 30 28 25 23 21 21 20 19 18 15 12 8 2 355 345 335 327 322 318 315 313 312 311 309 308
272 215 178 178 188 192 196 215 228 209 181 191 212 217 236 276 274 271 275 266 268 269 108 102 93 258 265 265 247 231 102 90 93 94 101 106 102 96 89 78 67 66 66 65 65 64 62 59 58 55 52 49 47 44 40 38 37 35 34 32 29 29 26 22 19 16 15 13 13 13 12 11 8 5 2 354 344 334 324 316 309 306 305 303 302 302
278 290 178 177 154 169 189 225 268 323 191 199 206 222 237 260 266 270 279 269 274 292 287 196 195 263 283 356 91 107 94 92 91 88 89 91 92 93 90 82 68 65 68 68 67 65 63 60 56 54 50 47 45 43 39 37 34 32 30 28 26 26 23 19 15 11 9 8 8 7 6 7 7 6 5 1 355 346 335 324 313 305 301 300 300 297
265 278 134 104 49 166 190 231 300 327 248 206 172 226 247 262 260 266 274 275 287 298 282 238 235 273 277 135 107 99 94 92 87 88 89 86 89 90 82 75 69 65 69 73 72 69 67 63 58 53 48 45 42 39 36 34 32 31 29 26 24 22 20 17 14 10 8 6 4 3 2 3 3 3 3 2 0 356 349 340 329 319 310 304 301 297
261 272 94 88 272 182 187 340 13 274 274 120 146 222 266 318 292 276 273 273 275 273 269 257 259 270 269 223 125 101 92 96 94 91 90 88 87 85 79 74 71 71 72 75 74 71 67 61 56 51 46 43 39 35 34 32 31 29 27 25 23 21 19 16 14 12 10 7 4 2 3 2 1 1 1 0 359 356 354 349 342 335 326 320 312 302
265 275 238 218 247 178 50 348 281 256 294 151 192 271 349 313 276 260 266 268 260 259 258 253 261 268 272 259 134 118 116 111 106 98 96 96 91 85 83 80 75 73 72 73 71 66 61 55 50 47 43 42 39 37 34 32 30 28 26 24 22 20 20 19 17 16 14 11 8 4 2 1 0 0 0 360 357 354 351 349 347 344 339 334 327 315
274 276 263 259 279 134 97 301 245 205 277 226 257 339 316 264 258 241 249 258 256 261 260 248 255 261 259 265 255 167 146 127 118 114 105 100 97 93 91 85 74 70 68 67 65 59 54 50 47 45 43 41 40 37 34 31 29 27 26 24 21 20 20 18 16 15 15 15 14 12 9 5 3 1 359 358 356 354 350 348 346 345 345 344 339 330
25 269 271 68 51 98 129 226 232 210 138 103 274 268 233 260 275 259 266 283 255 261 267 256 253 253 256 285 323 123 136 136 136 129 114 104 101 95 92 83 66 59 57 55 54 50 48 46 43 41 38 35 34 31 29 27 25 24 22 20 18 18 15 13 12 10 10 10 10 9 7 5 3 1 0 359 356 354 352 349 345 342 342 342 341 338
235 252 263 242 162 254 231 223 243 260 250 213 226 232 216 214 263 281 272 244 247 259 264 263 260 254 274 356 58 100 114 125 133 131 126 116 106 94 87 81 59 48 42 39 40 38 36 32 29 28 26 25 24 21 18 16 15 15 13 11 10 9 6 6 5 5 4 2 360 358 356 355 354 353 354 354 353 352 351 349 347 343 340 338 338 338
259 252 262 264 260 259 263 269 278 275 272 268 254 248 254 256 261 272 260 234 227 251 256 262 264 256 297 17 60 91 89 94 110 118 121 118 112 101 82 68 59 49 39 34 30 26 24 22 20 19 18 17 14 11 10 8 7 5 3 1 359 357 356 356 356 357 357 355 353 351 349 348 347 347 347 346 345 344 343 343 342 341 339 337 335 334
223 252 259 264 260 261 273 283 291 271 269 274 268 264 268 266 248 254 266 266 256 264 270 262 260 257 67 43 59 81 82 84 92 105 117 120 116 108 89 68 59 43 32 26 20 18 18 17 17 16 14 12 9 5 3 1 359 357 354 352 350 348 347 347 347 347 347 347 347 347 346 345 344 343 342 341 341 340 339 337 336 335 335 334 333 331
133 250 258 264 265 271 276 275 303 66 277 256 256 265 270 275 279 276 278 289 284 276 280 267 259 260 57 46 70 92 100 105 113 126 133 136 140 140 139 123 88 51 34 26 21 21 18 17 19 16 12 8 3 359 357 354 352 350 348 346 345 344 343 341 340 339 338 338 338 339 340 341 341 340 339 337 336 336 336 335 334 333 331 330 330 328
285 264 272 281 282 287 276 257 219 71 37 255 280 300 310 298 303 308 280 274 264 237 243 258 264 258 99 112 144 142 146 149 150 152 152 156 160 162 160 149 123 83 52 29 18 15 9 8 10 7 4 1 358 354 352 349 347 344 343 341 339 338 338 337 336 336 335 334 334 333 333 333 335 336 336 336 335 334 333 332 332 331 330 328 326 325
275 270 277 282 275 272 267 263 270 304 88 71 275 263 266 262 266 288 291 274 263 232 233 255 273 279 247 227 230 202 170 164 159 160 170 175 175 176 178 175 170 164 81 22 10 4 358 356 356 354 353 352 351 349 346 344 341 338 335 333 330 329 329 328 329 330 331 331 331 331 330 330 330 331 332 333 334 334 333 331 330 328 328 327 326 324
279 270 257 257 259 261 266 273 287 295 284 280 276 268 268 264 259 268 268 259 269 285 273 260 264 275 275 271 273 262 181 180 187 179 182 182 179 185 192 196 205 217 233 304 334 343 347 345 344 344 343 342 341 338 335 334 331 328 325 322 320 320 320 320 321 323 326 328 329 329 329 328 328 328 328 328 329 329 329 329 329 328 326 325 324 323
270 266 260 257 255 259 267 272 277 281 278 278 281 278 276 275 268 260 255 260 278 287 275 265 268 274 276 278 284 289 279 245 207 180 184 185 180 188 200 213 224 230 235 249 264 279 299 307 314 323 329 332 333 331 329 329 327 323 321 320 319 319 321 320 320 321 322 323 325 326 326 326 325 325 324 324 325 324 323 323 324 324 324 324 322 321
263 268 269 271 269 269 274 276 276 278 278 279 277 274 274 274 269 263 262 269 274 269 268 277 280 279 281 281 282 289 299 285 156 150 163 172 182 199 215 230 238 237 240 252 264 268 274 280 288 299 308 317 323 326 328 329 329 327 325 323 321 319 320 319 319 319 320 319 320 320 320 321 322 321 321 320 320 321 320 318 318 318 319 319 319 319
253 268 269 276 279 274 272 272 274 276 277 275 271 270 271 269 266 268 272 275 273 267 268 273 274 273 275 279 281 294 49 98 116 130 155 182 208 225 238 249 253 252 253 262 278 285 283 284 289 291 294 301 307 313 318 322 325 325 325 325 323 320 318 317 316 315 315 315 315 315 315 315 315 315 315 315 316 316 316 315 314 313 314 314 314 314
251 266 312 332 282 271 266 268 273 277 278 278 275 272 267 265 266 269 272 273 272 269 266 264 265 269 273 284 348 77 91 97 115 152 203 230 240 255 269 271 269 267 264 269 282 291 290 289 291 292 292 296 301 305 312 317 319 320 322 323 321 319 318 316 315 313 311 310 310 310 309 310 309 309 308 308 309 310 311 311 310 309 310 310 310 310
264 271 336 318 269 263 263 269 275 286 289 278 267 261 258 260 264 264 263 265 265 265 265 263 266 274 282 82 91 112 110 91 261 263 285 287 281 285 287 286 287 283 277 275 280 286 288 287 290 294 296 298 303 307 312 316 318 319 321 321 319 318 317 315 314 312 311 309 308 307 307 306 306 305 304 304 304 304 305 305 305 305 306 306 306 306
243 264 283 275 265 261 262 271 287 311 289 264 250 247 250 254 258 258 257 256 255 258 265 270 274 279 125 112 143 155 102 26 317 308 311 304 296 293 290 288 291 291 285 279 279 283 287 287 290 299 305 308 310 313 316 317 318 320 321 320 319 318 317 316 315 313 311 310 309 309 308 307 305 303 301 300 301 301 300 300 300 300 300 301 302 302
234 245 264 266 264 266 269 288 21 240 253 258 227 224 249 259 263 263 263 261 262 266 278 280 262 170 152 137 84 48 356 330 319 313 303 293 285 285 290 293 296 298 296 289 283 282 284 288 295 301 307 310 310 310 312 314 315 316 316 314 314 315 315 316 315 314 313 311 310 310 310 309 306 304 301 300 299 299 298 298 297 297 297 297 297 297
242 245 255 259 260 267 272 266 237 239 245 269 87 183 240 261 267 264 265 267 269 274 277 275 271 226 158 102 62 12 332 317 308 302 294 286 278 275 284 296 304 308 307 300 292 287 285 289 296 299 301 304 304 304 307 308 307 306 304 303 307 310 312 313 313 314 314 312 311 310 309 309 307 305 303 302 300 299 298 296 296 294 294 294 294 293
239 244 252 254 252 261 259 242 245 258 271 259 254 237 225 236 249 258 266 267 266 264 263 269 272 236 167 76 17 341 318 307 297 290 287 285 278 272 283 300 310 314 313 310 304 297 292 292 296 298 299 301 303 306 308 307 306 306 307 309 311 312 312 312 311 312 313 312 310 309 307 307 305 303 302 301 301 301 299 297 295 293 292 292 291 291
232 239 251 254 248 252 255 247 255 279 282 263 258 260 257 261 265 276 286 286 260 249 250 248 231 178 133 354 332 319 307 301 292 285 289 289 274 265 287 306 312 315 315 313 311 306 301 299 297 297 296 297 301 306 309 310 309 310 310 312 313 314 314 314 313 313 312 310 309 308 306 305 303 301 299 298 298 300 299 297 295 293 291 290 290 289
239 241 242 251 253 251 260 263 261 268 271 263 268 357 39 42 29 345 298 283 229 207 201 173 159 127 65 314 308 307 294 287 284 286 300 315 290 277 297 306 311 316 316 315 316 314 308 302 295 292 294 297 300 305 309 310 310 310 310 311 313 315 315 314 314 313 311 308 307 306 304 302 300 298 297 295 293 295 296 295 294 292 290 289 287 286
247 250 240 248 258 250 254 261 255 260 269 222 158 49 72 74 43 355 292 281 224 153 125 100 80 353 281 277 283 288 272 264 277 290 306 323 315 302 303 306 309 313 314 317 317 311 305 301 298 298 299 301 303 305 306 308 309 310 311 312 314 314 314 312 311 310 308 306 305 303 300 298 297 296 295 293 291 291 293 294 292 290 288 288 286 284
193 228 223 232 243 240 245 250 251 267 295 84 129 115 120 105 47 341 287 286 162 153 140 115 344 296 279 276 280 274 259 264 282 295 303 307 306 302 302 304 307 310 313 315 310 304 304 305 305 305 307 308 308 307 308 309 311 311 311 312 312 311 310 309 308 307 305 304 303 300 297 296 296 294 294 293 291 290 291 292 291 288 288 289 287 285
175 210 220 227 237 239 243 249 255 265 269 276 281 170 138 118 5 268 277 267 153 178 185 188 252 279 278 278 279 272 273 280 286 291 296 298 298 299 301 303 304 305 306 305 304 306 307 307 306 307 308 309 309 309 309 310 310 309 308 308 307 307 307 307 306 306 305 304 302 299 297 296 295 293 292 292 291 289 289 290 289 286 287 289 288 286
190 202 220 233 242 241 245 253 263 267 245 235 254 186 154 171 266 266 262 139 162 191 219 228 248 269 272 272 278 280 283 285 284 286 290 292 295 299 301 302 298 296 298 302 305 307 306 305 306 306 306 307 307 307 307 307 306 306 306 305 306 307 307 307 307 306 305 303 301 299 298 297 296 294 293 292 291 289 288 288 287 286 287 287 285 284
242 249 243 241 239 241 251 247 250 274 250 157 138 141 182 218 257 278 179 160 182 219 260 252 257 267 268 275 284 286 286 286 284 284 285 288 293 297 296 294 293 296 301 305 307 306 304 304 305 305 306 307 308 307 307 306 306 306 306 306 308 309 308 307 307 306 304 302 301 299 299 298 297 296 294 293 292 290 288 287 287 287 286 285 284 283
248 245 252 255 241 241 254 240 232 278 265 164 168 229 246 242 256 270 273 261 269 287 293 282 277 277 277 283 286 285 287 287 284 284 286 289 292 290 288 291 295 300 303 304 304 303 303 304 305 307 308 309 308 308 307 308 308 308 308 309 311 311 309 308 306 304 303 301 301 300 299 298 297 297 297 297 296 294 292 292 290 288 287 285 284 283
208 220 235 246 250 255 264 267 278 294 268 188 197 238 257 261 264 267 272 279 283 288 288 283 282 284 286 285 280 279 282 285 286 286 286 286 286 285 289 294 299 302 302 301 301 302 304 307 308 309 310 310 309 309 310 311 312 311 311 313 313 311 309 307 306 304 304 303 302 302 302 302 302 303 304 304 303 301 301 301 299 295 292 288 284 280
226 239 241 244 256 262 263 265 273 276 265 244 234 243 255 264 269 270 272 272 273 277 279 279 281 284 287 284 275 271 274 279 282 281 279 281 285 288 293 298 300 300 299 299 302 305 308 310 310 310 311 310 311 312 313 313 314 314 314 314 313 312 311 310 309 307 306 306 305 305 306 307 308 309 310 310 309 308 307 306 302 296 292 285 279 277
241 247 247 243 250 254 257 257 258 261 262 260 256 254 257 264 267 269 270 270 272 275 275 274 278 283 287 286 280 275 273 272 272 274 278 283 288 292 296 299 299 299 300 302 306 309 311 311 311 311 311 311 313 315 315 315 316 317 317 317 316 316 314 312 310 309 308 308 308 308 309 310 311 312 312 311 310 309 306 301 293 288 285 282 279 277
242 243 241 237 243 249 257 259 259 261 264 265 265 265 264 263 264 266 268 270 273 273 271 273 280 284 286 286 282 277 274 270 270 276 281 285 289 294 297 298 298 299 302 307 309 310 310 310 310 311 311 313 315 316 316 317 319 321 321 321 319 318 315 312 311 309 308 308 308 308 309 310 310 311 310 309 307 305 302 298 290 283 282 283 282 280
252 246 233 235 249 255 257 257 259 263 265 264 261 259 259 261 264 267 267 267 268 269 271 277 282 284 283 281 278 275 273 273 275 279 283 286 291 295 296 297 298 301 306 309 309 309 309 310 311 312 313 315 317 317 317 320 323 326 325 322 321 319 316 313 311 308 307 307 308 308 309 308 307 306 305 305 304 302 299 297 292 288 286 286 284 279
252 249 240 243 254 254 245 243 246 251 261 266 265 263 264 268 268 263 259 260 262 267 274 278 281 283 282 279 275 274 274 276 278 280 284 288 292 294 295 296 299 303 307 308 307 307 308 310 312 314 315 316 317 317 320 324 328 329 327 324 323 320 315 311 309 308 309 310 309 308 307 305 304 304 303 303 303 302 300 297 294 289 285 285 285 281
239 241 242 242 246 249 248 247 247 248 260 269 272 275 276 270 256 247 251 258 261 267 275 277 277 279 280 277 276 275 274 276 278 281 285 289 290 292 294 296 300 304 306 307 307 308 310 312 314 315 315 316 318 321 325 328 330 331 329 327 324 319 313 312 312 312 312 311 309 308 306 305 304 304 303 302 302 301 300 298 296 292 287 285 285 285